User: anonymous   Login
Location: Bonnesvalyn
(49.1218°N, 3.3177°E)
Time: 18:12:46
(UTC+00:00)
Language:

Cosmos 2322 Rocket - Orbit

View from above orbital plane
View from above orbital plane
View from above satellite
View from above satellite

Ground track
Ground track

The orbit data is extracted from the following two-line orbital elements,

1 23705U 95058B   24105.70969542  .00000309  00000-0  18293-3 0  9996
2 23705  71.0231 197.0748 0010322  98.6856 261.5436 14.15304811469654
Epoch (UTC): 14 April 2024 17:01:57
Eccentricity: 0.0010322
inclination: 71.0231°
perigee height: 834 km
apogee height: 849 km
right ascension of ascending node: 197.0748°
argument of perigee: 98.6856°
revolutions per day: 14.15304811
mean anomaly at epoch: 261.5436°
orbit number at epoch: 46965

The dashed part of the orbit path shows where the satellite is in the earth's shadow,  

DLR